STARLINK-1144 (44933 NORAD) Tracking and Keplerian Element Data

This shows tracking and keplerian element data for the satellite.

Feedback or suggestion? Click here.




ElementValue
Catalog44933
NameSTARLINK-1144
Epoch Orbit176
Epoch Day87.91667824
Epoch Year2020
RAAN20.5726
Inclination53.0003
Eccentricity0.0002248
Argument of Perigee68.757
Mean Anonmoly342.3864
Mean Motion15.05608383
Decay Rate-0.00028122
L11 44933U 20001V 20087.91667824 -.00028122 00000-0 -19170-2 0 9993
L22 44933 53.0003 20.5726 0002248 68.7570 342.3864 15.05608383 1760

Live tracking and technical data element details for STARLINK-1144 (NORAD 44933). STARLINK-1144 can be tracked NOW for your location showing map with azimuth and elevation plus other details from your city location.

Track the satellite on the map from your city or location and see movement details for azimuth, elevation, latitude, longitude, range, height, and movement on the map or in text.







IsCatalogInMostPopularTable: catalog: 44933, numindb: 22
Update: records affected: 1



GetName: 44933 STARLINK-1144

Hit Count: updated at: Sat, 28 Mar 2020 21:19:51 GMT